Time,TemperatureF,DewpointF,PressureIn,WindDirection,WindDirectionDegrees,WindSpeedMPH,WindSpeedGustMPH,Humidity,HourlyPrecipIn,Conditions,Clouds,dailyrainin,SoftwareType,DateUTC
2013-02-01 00:01:00,45.0,45.0,-100.00,West,280,1.0,3.0,100,-99.99,,,-99.99,,2013-02-01 08:01:00,
2013-02-01 00:10:00,45.0,45.0,-100.00,WNW,295,1.0,3.0,100,-99.99,,,-99.99,,2013-02-01 08:10:00,
2013-02-01 01:01:00,45.0,45.0,-100.00,WNW,295,1.0,3.0,100,-99.99,,,-99.99,,2013-02-01 09:01:00,
2013-02-01 01:10:00,45.0,45.0,-100.00,North,5,1.0,3.0,100,-99.99,,,-99.99,,2013-02-01 09:10:00,
2013-02-01 02:01:00,45.0,45.0,-100.00,North,5,1.0,3.0,100,-99.99,,,-99.99,,2013-02-01 10:01:00,
2013-02-01 02:10:00,45.0,45.0,-100.00,WNW,295,1.0,3.0,100,-99.99,,,-99.99,,2013-02-01 10:10:00,
2013-02-01 03:01:00,45.0,45.0,-100.00,WNW,295,1.0,3.0,100,-99.99,,,-99.99,,2013-02-01 11:01:00,
2013-02-01 03:10:00,44.0,44.0,-100.00,North,360,1.0,3.0,100,-99.99,,,-99.99,,2013-02-01 11:10:00,
2013-02-01 04:02:00,44.0,44.0,-100.00,North,360,1.0,3.0,100,-99.99,,,-99.99,,2013-02-01 12:02:00,
2013-02-01 04:10:00,44.0,44.0,-100.00,ENE,60,0.0,2.0,100,-99.99,,,-99.99,,2013-02-01 12:10:00,
2013-02-01 05:02:00,44.0,44.0,-100.00,ENE,60,0.0,2.0,100,-99.99,,,-99.99,,2013-02-01 13:02:00,
2013-02-01 05:10:00,43.0,43.0,-100.00,ENE,70,1.0,3.0,100,-99.99,,,-99.99,,2013-02-01 13:10:00,
2013-02-01 06:03:00,43.0,43.0,-100.00,ENE,70,1.0,3.0,100,-99.99,,,-99.99,,2013-02-01 14:03:00,
2013-02-01 06:10:00,43.0,43.0,-100.00,ESE,105,2.0,3.0,100,-99.99,,,-99.99,,2013-02-01 14:10:00,
2013-02-01 07:02:00,43.0,43.0,-100.00,ESE,105,2.0,3.0,100,-99.99,,,-99.99,,2013-02-01 15:02:00,
2013-02-01 07:10:00,43.0,42.0,-100.00,ESE,105,5.0,6.0,96,-99.99,,,-99.99,,2013-02-01 15:10:00,
2013-02-01 08:02:00,43.0,42.0,-100.00,ESE,105,5.0,6.0,96,-99.99,,,-99.99,,2013-02-01 16:02:00,
2013-02-01 08:10:00,42.0,42.0,-100.00,ESE,105,3.0,6.0,100,-99.99,,,-99.99,,2013-02-01 16:10:00,
2013-02-01 09:02:00,42.0,42.0,-100.00,ESE,105,3.0,6.0,100,-99.99,,,-99.99,,2013-02-01 17:02:00,
2013-02-01 09:10:00,42.0,42.0,-100.00,East,95,5.0,7.0,100,-99.99,,,-99.99,,2013-02-01 17:10:00,
2013-02-01 10:02:00,42.0,42.0,-100.00,East,95,5.0,7.0,100,-99.99,,,-99.99,,2013-02-01 18:02:00,
2013-02-01 10:10:00,44.0,44.0,-100.00,SW,220,1.0,2.0,100,-99.99,,,-99.99,,2013-02-01 18:10:00,
2013-02-01 11:02:00,44.0,44.0,-100.00,SW,220,1.0,2.0,100,-99.99,,,-99.99,,2013-02-01 19:02:00,
2013-02-01 11:10:00,45.0,44.0,-100.00,SW,235,3.0,5.0,96,-99.99,,,-99.99,,2013-02-01 19:10:00,
2013-02-01 12:02:00,45.0,44.0,-100.00,SW,235,3.0,5.0,96,-99.99,,,-99.99,,2013-02-01 20:02:00,
2013-02-01 12:10:00,46.0,44.0,-100.00,SSW,210,2.0,3.0,92,-99.99,,,-99.99,,2013-02-01 20:10:00,
2013-02-01 13:02:00,46.0,44.0,-100.00,SSW,210,2.0,3.0,92,-99.99,,,-99.99,,2013-02-01 21:02:00,
2013-02-01 13:10:00,50.0,45.0,-100.00,ESE,105,2.0,3.0,82,-99.99,,,-99.99,,2013-02-01 21:10:00,
2013-02-01 14:02:00,50.0,45.0,-100.00,ESE,105,2.0,3.0,82,-99.99,,,-99.99,,2013-02-01 22:02:00,
2013-02-01 14:10:00,47.0,45.0,-100.00,South,175,1.0,3.0,92,-99.99,,,-99.99,,2013-02-01 22:10:00,
2013-02-01 15:01:00,47.0,45.0,-100.00,South,175,1.0,3.0,92,-99.99,,,-99.99,,2013-02-01 23:01:00,
2013-02-01 15:10:00,47.0,44.0,-100.00,South,175,1.0,3.0,89,-99.99,,,-99.99,,2013-02-01 23:10:00,
2013-02-01 16:02:00,47.0,44.0,-100.00,South,175,1.0,3.0,89,-99.99,,,-99.99,,2013-02-02 00:02:00,
2013-02-01 16:10:00,45.0,44.0,-100.00,ESE,110,2.0,3.0,96,-99.99,,,-99.99,,2013-02-02 00:10:00,
2013-02-01 17:02:00,45.0,44.0,-100.00,ESE,110,2.0,3.0,96,-99.99,,,-99.99,,2013-02-02 01:02:00,
2013-02-01 17:10:00,44.0,42.0,-100.00,ENE,60,1.0,5.0,92,-99.99,,,-99.99,,2013-02-02 01:10:00,
2013-02-01 18:01:00,44.0,42.0,-100.00,ENE,60,1.0,5.0,92,-99.99,,,-99.99,,2013-02-02 02:01:00,
2013-02-01 18:10:00,43.0,43.0,-100.00,East,80,1.0,6.0,100,-99.99,,,-99.99,,2013-02-02 02:10:00,
2013-02-01 19:02:00,43.0,43.0,-100.00,East,80,1.0,6.0,100,-99.99,,,-99.99,,2013-02-02 03:02:00,
2013-02-01 19:10:00,43.0,42.0,-100.00,SE,130,1.0,3.0,96,-99.99,,,-99.99,,2013-02-02 03:10:00,
2013-02-01 20:01:00,43.0,42.0,-100.00,SE,130,1.0,3.0,96,-99.99,,,-99.99,,2013-02-02 04:01:00,
2013-02-01 20:10:00,43.0,43.0,-100.00,ESE,105,3.0,5.0,100,-99.99,,,-99.99,,2013-02-02 04:10:00,
2013-02-01 21:03:00,43.0,43.0,-100.00,ESE,105,3.0,5.0,100,-99.99,,,-99.99,,2013-02-02 05:03:00,
2013-02-01 21:10:00,44.0,43.0,-100.00,NE,50,1.0,3.0,96,-99.99,,,-99.99,,2013-02-02 05:10:00,
2013-02-01 22:02:00,44.0,43.0,-100.00,NE,50,1.0,3.0,96,-99.99,,,-99.99,,2013-02-02 06:02:00,
2013-02-01 22:10:00,43.0,42.0,-100.00,East,100,2.0,5.0,96,-99.99,,,-99.99,,2013-02-02 06:10:00,
2013-02-01 23:02:00,43.0,42.0,-100.00,East,100,2.0,5.0,96,-99.99,,,-99.99,,2013-02-02 07:02:00,
2013-02-01 23:10:00,43.0,42.0,-100.00,East,100,3.0,7.0,96,-99.99,,,-99.99,,2013-02-02 07:10:00,